Location: Petruro
(41.0333°N, 14.7833°E)
Time: 08:13:57
(UTC+00:00)

USA 229 - Pass Details

Date: 20 June 2021
Orbit: 956 x 1256 km, 63.5° (Epoch: 25 July)

Event Time Altitude Azimuth Distance (km) Brightness Sun altitude
Exits shadow 00:22:33 24° 257° (WSW) 1,944 4.8 -22.9°
Maximum altitude 00:26:04 43° 314° (NW) 1,397 4.4 -22.7°
Drops below altitude 10° 00:32:32 10° 25° (NNE) 2,911 7.1 -22.2°
Sets 00:35:27 0° 32° (NNE) 3,918 8.1 -22.0°
